Location: Étouvelles
(49.5207°N, 3.5808°E)
Time: 19:47:31
(UTC+00:00)

FENGYUN 1C DEB - Visible Passes

Search period start: 27 February 2024 00:00
Search period end: 08 March 2024 00:00
Orbit: 721 x 944 km, 99.0° (Epoch: 18 November)

Date Brightness Start Highest point End Pass type
(mag) Time Alt. Az. Time Alt. Az. Time Alt. Az.
27 Feb ? 00:58:35 10° NNE 00:59:07 13° NNE 00:59:07 13° NNE visible
27 Feb ? 02:39:00 10° N 02:40:38 19° N 02:40:38 19° N visible
28 Feb ? 00:39:56 10° NNE 00:40:08 11° NNE 00:40:08 11° NNE visible
28 Feb ? 02:19:55 10° N 02:21:39 20° N 02:21:39 20° N visible
28 Feb ? 04:02:41 10° NNW 04:03:08 11° NNW 04:03:08 11° NNW visible
29 Feb ? 02:00:53 10° N 02:02:38 21° N 02:02:38 21° N visible
29 Feb ? 03:42:42 10° NNW 03:44:08 13° NNW 03:44:08 13° NNW visible
01 Mar ? 01:41:55 10° NNE 01:43:37 20° NNE 01:43:37 20° NNE visible
01 Mar ? 03:23:11 10° N 03:25:07 16° NNW 03:25:07 16° NNW visible
02 Mar ? 01:23:00 10° NNE 01:24:35 19° NNE 01:24:35 19° NNE visible
02 Mar ? 03:03:51 10° N 03:06:05 20° NNW 03:06:05 20° NNW visible
03 Mar ? 01:04:08 10° NNE 01:05:31 18° NNE 01:05:31 18° NNE visible
03 Mar ? 02:44:37 10° N 02:47:01 23° NNW 02:47:01 23° NNW visible
04 Mar ? 00:45:21 10° NNE 00:46:27 15° NE 00:46:27 15° NE visible
04 Mar ? 02:25:27 10° N 02:27:57 25° N 02:27:57 25° N visible
04 Mar ? 04:08:32 10° NNW 04:09:26 11° NW 04:09:26 11° NW visible
05 Mar ? 00:26:41 10° NE 00:27:22 13° NE 00:27:22 13° NE visible
05 Mar ? 02:06:19 10° N 02:08:51 27° N 02:08:51 27° N visible
05 Mar ? 03:48:15 10° NNW 03:50:21 14° NW 03:50:21 14° NW visible
06 Mar ? 00:08:14 10° NE 00:08:16 10° NE 00:08:16 10° NE visible
06 Mar ? 01:47:15 10° NNE 01:49:45 27° NNE 01:49:45 27° NNE visible
06 Mar ? 03:28:36 10° N 03:31:14 18° NW 03:31:14 18° NW visible
07 Mar ? 01:28:15 10° NNE 01:30:37 26° NNE 01:30:37 26° NNE visible
07 Mar ? 03:09:10 10° N 03:12:07 22° NNW 03:12:07 22° NNW visible
